Location: Dannhausen
(51.8650°N, 10.1026°E)
Time: 18:23:33
(UTC+00:00)

SJ-6B - Pass Details

Date: 09 April 2020
Orbit: 509 x 582 km, 97.6° (Epoch: 24 May)

Event Time Altitude Azimuth Distance (km) Brightness Sun altitude
Rises 18:39:38 0° 157° (SSE) 2,792 6.0 -5.6°
Reaches altitude 10° 18:41:47 10° 155° (SSE) 1,900 5.1 -5.9°
Maximum altitude 18:45:53 68° 72° (ENE) 635 3.0 -6.5°
Drops below altitude 10° 18:50:00 10° 351° (N) 1,910 6.0 -7.0°
Sets 18:52:10 0° 349° (NNW) 2,809 7.0 -7.4°
